597  
ASUS44 KOUN 071310  
RWROK  
 
WEATHER ROUNDUP FOR OKLAHOMA  
NATIONAL WEATHER SERVICE NORMAN OK  
800 AM CDT THU JUL 07 2022  
 
NOTE: "FAIR" INDICATES FEW OR NO CLOUDS BELOW 12,000 FEET WITH NO  
SIGNIFICANT WEATHER AND/OR S TO VISIBILITY
.  
 
OKZ001>007-009>012-014-015-017-071400-  
NORTHWEST OKLAHOMA AND THE PANHANDLE  
 
CITY SKY/WX TMP DP RH WIND PRES REMARKS
 
GAGE MOSUNNY 76 67 73 E6 29.96S  
GUYMON MOSUNNY 68 63 84 NW12G20 30.03R  
ENID/WOODRING PTSUNNY 84 64 51 CALM 29.92R  

 
 
OKZ016-021>023-033>039-044-045-071400-  
SOUTHWEST OKLAHOMA  
 
CITY SKY/WX TMP DP RH WIND PRES REMARKS
 
LAWTON/REGL SUNNY 82 64 54 S7 29.93R  
LAWTON/FT SILL SUNNY 81 64 55 S12 29.91R  
FREDERICK SUNNY 84 61 45 S13 29.91R  
CLINTON MOSUNNY 79 60 52 SW3 29.97R  
HOBART MOSUNNY 82 61 48 S18G24 29.93S  
ALTUS AFB SUNNY 81 62 52 S8 29.90R  

 
 
OKZ018>020-024>031-071400-  
CENTRAL OKLAHOMA  
 
CITY SKY/WX TMP DP RH WIND PRES REMARKS
 
OKLAHOMA CITY MOSUNNY 79 65 62 S14 29.93R  
OKC/WILEY POST MOSUNNY 84 64 50 S13 29.93R  
OKC/TINKER AFB SUNNY 80 64 57 S13 29.91S  
STILLWATER PTSUNNY 81 66 60 NW13 29.95R  
GUTHRIE MOSUNNY 85 64 49 W8 29.94R  

 
 
OKZ008-013-054>072-071400-  
NORTHEAST OKLAHOMA  
 
CITY SKY/WX TMP DP RH WIND PRES REMARKS
 
TULSA PTSUNNY 84 67 56 S10 29.94R  
TULSA/JONES SUNNY 83 68 60 S8 29.94R  
PONCA CITY PTSUNNY 80 70 71 SE5 29.93R  
BARTLESVILLE MOSUNNY 83 69 62 S5 29.94R  
MUSKOGEE SUNNY 82 70 66 S8 29.98R  

 
 
OKZ032-040>043-046>053-073>077-071400-  
SOUTH CENTRAL/SOUTHEAST OKLAHOMA  
 
CITY SKY/WX TMP DP RH WIND PRES REMARKS
 
ARDMORE/DWNTWN SUNNY 81 70 69 S8 29.96S  
MCALESTER PTSUNNY 82 72 71 S5 29.98R  

 
 
 
 
CLICK HERE TO GO TO PREVIOUS BULLETINS.

The Nexlab OK Page Main Text Page